TimeCDT,TemperatureF,Dew PointF,Humidity,Sea Level PressureIn,VisibilityMPH,Wind Direction,Wind SpeedMPH,Gust SpeedMPH,PrecipitationIn,Events,Conditions,WindDirDegrees,DateUTC
12:53 AM,68.0,63.0,84,30.10,10.0,Variable,4.6,-,N/A,,Overcast,0,2013-10-13 05:53:00
1:22 AM,68.0,62.6,83,30.13,10.0,NE,3.5,-,N/A,,Overcast,40,2013-10-13 06:22:00
1:53 AM,68.0,63.0,84,30.13,10.0,Calm,Calm,-,N/A,,Overcast,0,2013-10-13 06:53:00
2:06 AM,66.2,62.6,88,30.15,10.0,Calm,Calm,-,N/A,,Mostly Cloudy,0,2013-10-13 07:06:00
2:53 AM,66.9,63.0,87,30.13,10.0,NE,3.5,-,N/A,,Mostly Cloudy,40,2013-10-13 07:53:00
3:05 AM,66.2,62.6,88,30.15,10.0,NNE,3.5,-,N/A,,Mostly Cloudy,30,2013-10-13 08:05:00
3:53 AM,66.9,63.0,87,30.14,10.0,NE,3.5,-,N/A,,Overcast,40,2013-10-13 08:53:00
4:33 AM,66.2,62.6,88,30.16,10.0,NE,5.8,-,N/A,,Overcast,40,2013-10-13 09:33:00
4:53 AM,66.0,63.0,90,30.15,10.0,Calm,Calm,-,N/A,,Overcast,0,2013-10-13 09:53:00
5:41 AM,66.2,62.6,88,30.18,10.0,Calm,Calm,-,N/A,,Overcast,0,2013-10-13 10:41:00
5:53 AM,66.0,63.0,90,30.16,10.0,Calm,Calm,-,N/A,,Overcast,0,2013-10-13 10:53:00
6:45 AM,66.2,62.6,88,30.19,10.0,NNE,3.5,-,N/A,,Overcast,30,2013-10-13 11:45:00
6:53 AM,66.0,63.0,90,30.17,10.0,Calm,Calm,-,N/A,,Overcast,0,2013-10-13 11:53:00
7:09 AM,66.2,62.6,88,30.19,10.0,NNE,3.5,-,N/A,,Overcast,30,2013-10-13 12:09:00
7:53 AM,66.9,64.0,90,30.19,10.0,Calm,Calm,-,N/A,,Overcast,0,2013-10-13 12:53:00
8:53 AM,68.0,64.9,90,30.21,10.0,Calm,Calm,-,N/A,,Overcast,0,2013-10-13 13:53:00
9:31 AM,69.8,66.2,88,30.24,10.0,East,3.5,-,N/A,,Overcast,90,2013-10-13 14:31:00
9:53 AM,70.0,66.0,87,30.22,10.0,East,6.9,-,N/A,,Overcast,80,2013-10-13 14:53:00
10:22 AM,71.6,66.2,83,30.26,10.0,East,4.6,-,N/A,,Overcast,80,2013-10-13 15:22:00
10:33 AM,71.6,66.2,83,30.26,10.0,ESE,4.6,-,N/A,,Overcast,110,2013-10-13 15:33:00
10:45 AM,71.6,66.2,83,30.26,10.0,Variable,5.8,-,N/A,,Overcast,0,2013-10-13 15:45:00
10:53 AM,72.0,66.0,81,30.24,10.0,Variable,3.5,-,N/A,,Overcast,0,2013-10-13 15:53:00
11:53 AM,73.9,64.0,71,30.23,10.0,Variable,5.8,-,N/A,,Overcast,0,2013-10-13 16:53:00
12:53 PM,75.0,64.0,69,30.22,10.0,Variable,5.8,-,N/A,,Overcast,0,2013-10-13 17:53:00
1:53 PM,77.0,64.0,64,30.19,10.0,Variable,4.6,-,N/A,,Mostly Cloudy,0,2013-10-13 18:53:00
2:10 PM,75.2,64.4,69,30.20,10.0,ESE,8.1,-,N/A,,Mostly Cloudy,110,2013-10-13 19:10:00
2:53 PM,75.9,63.0,64,30.16,10.0,Variable,3.5,-,N/A,,Overcast,0,2013-10-13 19:53:00
3:53 PM,77.0,61.0,58,30.16,10.0,ESE,5.8,-,N/A,,Mostly Cloudy,110,2013-10-13 20:53:00
4:53 PM,77.0,61.0,58,30.14,10.0,East,3.5,-,N/A,,Overcast,80,2013-10-13 21:53:00
5:53 PM,75.0,64.0,69,30.16,10.0,East,4.6,-,N/A,,Partly Cloudy,90,2013-10-13 22:53:00
6:53 PM,72.0,63.0,73,30.17,10.0,East,4.6,-,N/A,,Scattered Clouds,80,2013-10-13 23:53:00
7:53 PM,71.1,62.1,73,30.19,10.0,East,4.6,-,N/A,,Scattered Clouds,80,2013-10-14 00:53:00
8:53 PM,69.1,62.1,78,30.19,10.0,East,3.5,-,N/A,,Clear,90,2013-10-14 01:53:00
9:53 PM,68.0,62.1,81,30.21,10.0,Calm,Calm,-,N/A,,Scattered Clouds,0,2013-10-14 02:53:00
10:53 PM,68.0,61.0,78,30.19,10.0,East,3.5,-,N/A,,Clear,100,2013-10-14 03:53:00
11:53 PM,64.9,61.0,87,30.19,10.0,Calm,Calm,-,N/A,,Clear,0,2013-10-14 04:53:00